Terminal Aerodrome Forecast
Issued by NWS Cleveland, OH

Home | Current Version | Previous Version | Graphics & Text | Print | Product List | Glossary On
Versions: 1 2 3 4 5 6 7 8 9 10 11 12 13 14 15 16 17 18 19 20 21 22 23 24 25 26 27 28 29 30 31 32
000
FTUS41 KCLE 212335
TAFCLE
TAF
KCLE 212335Z 2200/2306 02012KT P6SM SCT015 OVC060
     FM220600 03008KT 5SM -RASN OVC025
     FM221100 04010KT 2SM -SN OVC008
      TEMPO 2211/2215 3SM -FZRAPL OVC012
     FM221700 05010KT P6SM OVC012=

USA.gov is the U.S. government's official web portal to all federal, state and local government web resources and services.